カタログに戻る

TITAN 3C TRANSTAGE R/B

運用中MEO
NORAD 11560·ROCKET BODY·🇺🇸 United States

打ち上げ Oct 1, 1979 から Cape Canaveral Space Force Station

Loading…

次のパス (今後24時間)

TLE

最新Source: Space-Track

元期: Sep 14, 2026, 13:14 UTC

1 11560U 79086C   26257.55204328 -.00000036  00000-0  00000-0 0  9994
2 11560   5.9060  13.1267 1293432 127.5214 245.0206  0.99682009 27136

AllMySatでTITAN 3C TRANSTAGE R/Bをリアルタイム追跡

Download on the App Store